{"data":{"norad_id":62709,"intl_designator":"2025-009DE","name":"CONNECTA IOT-6","alt_names":[],"object_type":"PAYLOAD","status":"ACTIVE","operator":null,"country":"TURK","launch_date":"2025-01-14","launch_site_code":"AFWTR","launch_vehicle":null,"mission":null,"orbit_class":"UNKNOWN","rcs_meters":null,"size_class":null,"mass_kg":null,"dimensions":null,"purposes":[],"wikipedia_slug":null,"has_3d_model":false,"image_url":null,"decayed_at":null,"tle_current":{"epoch":"2026-09-22T16:35:47.673600Z","epoch_age_seconds":131246,"freshness":"FRESH","line1":"1 62709U 25009DE  26265.69152400  .00000947  00000+0  93036-4 0  9992","line2":"2 62709  97.6982 342.1784 0002257 151.0247 209.1100 14.94441759 91924","mean_motion":14.94441759,"eccentricity":0.0002257,"inclination_deg":97.6982,"raan_deg":342.1784,"arg_perigee_deg":151.0247,"mean_anomaly_deg":209.11,"bstar":9.3036e-5,"rev_number":9192,"period_min":96.357050472383,"perigee_km":582.5346399077,"apogee_km":585.67739640609,"semimajor_km":6962.2430181569,"source":"CELESTRAK","updated_at":"2026-09-23T09:00:21.588022Z"}}}